Eden Prairie, MN

5:38 PM CST on February 09, 2016 (GMT -0600)
Flying Cloud

Weather History for KFCM - December, 2011

Change the Weather History Date:

Friday, December 16, 2011

  Actual Average Record
Temperature  
Mean Temperature 22 °F -  
Max Temperature 26 °F 27 °F 46 °F (2006)
Min Temperature 18 °F 13 °F -14 °F (2008)
Degree Days  
Heating Degree Days 43    
Moisture  
Dew Point 14 °F    
Average Humidity 70    
Maximum Humidity 86    
Minimum Humidity 49    
Precipitation  
Precipitation 0.00 in - - ()
Sea Level Pressure  
Sea Level Pressure 30.38 in    
Wind  
Wind Speed 2 mph (NW)    
Max Wind Speed 6 mph    
Max Gust Speed -    
Visibility 8 miles    
Events Snow    
Averages and records for this station are not official NWS values.
T = Trace of Precipitation, MM = Missing Value Source: NWS Daily Summary

Daily Weather History Graph

Daily Weather History Graph

Search for Another Location

Airport or City:

Trip Planner

Search our weather history database for the weather conditions in past years. The results will help you decide how hot, cold, wet, or windy it might be!

Date:

Astronomy

Dec. 16, 2011 Rise Set
Actual Time 7:45 AM CST 4:33 PM CST
Civil Twilight 7:11 AM CST 5:07 PM CST
Nautical Twilight 6:34 AM CST 5:44 PM CST
Astronomical Twilight 5:58 AM CST 6:20 PM CST
Moon 11:22 PM CST (12/16) 11:17 AM CST (12/16)
Length of Visible Light 9h 55m
Length of Day
8h 48m
Waning Gibbous, 64% of the Moon is Illuminated
Dec 16
Waning Gibbous
Dec 17
Last Quarter
Dec 24
New
Jan 1
First Quarter
Jan 9
Full

Hourly Weather History & Observations

Time (CST) Temp. Windchill Dew Point Humidity Pressure Visibility Wind Dir Wind Speed Gust Speed Precip Events Conditions
12:53 AM 19.0 °F 11.1 °F 12.9 °F 77% 30.40 in 10.0 mi WNW 5.8 mph - N/A   Clear
1:53 AM 18.0 °F - 12.9 °F 81% 30.42 in 10.0 mi Calm Calm - N/A   Clear
2:53 AM 18.0 °F 11.1 °F 12.0 °F 78% 30.42 in 10.0 mi NW 4.6 mph - N/A   Clear
4:53 AM 18.0 °F 12.7 °F 14.0 °F 84% 30.40 in 10.0 mi NW 3.5 mph - N/A   Clear
5:53 AM 19.0 °F - 12.9 °F 77% 30.40 in 10.0 mi Calm Calm - N/A   Clear
6:53 AM 19.0 °F - 12.9 °F 77% 30.40 in 10.0 mi Calm Calm - N/A   Clear
7:53 AM 19.0 °F - 12.9 °F 77% 30.41 in 10.0 mi Calm Calm - N/A   Scattered Clouds
8:53 AM 19.0 °F - 14.0 °F 81% 30.43 in 10.0 mi Calm Calm - N/A   Clear
9:53 AM 21.0 °F - 15.1 °F 78% 30.45 in 10.0 mi Calm Calm - N/A   Partly Cloudy
10:53 AM 24.1 °F - 15.1 °F 69% 30.45 in 10.0 mi Calm Calm - N/A   Overcast
11:53 AM 24.1 °F - 14.0 °F 65% 30.43 in 10.0 mi Calm Calm - N/A   Overcast
12:53 PM 25.0 °F - 12.9 °F 60% 30.42 in 10.0 mi Calm Calm - N/A   Overcast
1:53 PM 26.1 °F - 12.0 °F 55% 30.40 in 10.0 mi Calm Calm - N/A   Overcast
2:53 PM 26.1 °F 21.9 °F 9.0 °F 49% 30.38 in 10.0 mi NW 3.5 mph - N/A   Overcast
3:53 PM 26.1 °F - 10.9 °F 53% 30.37 in 10.0 mi Calm Calm - N/A   Overcast
4:53 PM 26.1 °F 21.9 °F 12.0 °F 55% 30.37 in 10.0 mi East 3.5 mph - N/A   Overcast
5:53 PM 25.0 °F - 12.0 °F 58% 30.37 in 10.0 mi Calm Calm - N/A   Overcast
6:53 PM 25.0 °F - 12.9 °F 60% 30.38 in 10.0 mi Calm Calm - N/A   Overcast
7:53 PM 25.0 °F - 12.9 °F 60% 30.37 in 10.0 mi Calm Calm - N/A   Overcast
8:53 PM 25.0 °F - 12.9 °F 60% 30.35 in 10.0 mi Calm Calm - N/A   Overcast
9:53 PM 25.0 °F - 15.1 °F 66% 30.36 in 10.0 mi Calm Calm - N/A   Overcast
10:48 PM 24.8 °F - 17.6 °F 74% 30.31 in 2.5 mi Calm Calm - 0.00 in Snow Light Snow
10:53 PM 24.1 °F - 17.1 °F 75% 30.35 in 3.0 mi Calm Calm - 0.00 in Snow Light Snow
11:01 PM 24.8 °F - 17.6 °F 74% 30.31 in 2.5 mi Calm Calm - 0.00 in Snow Light Snow
11:37 PM 24.8 °F - 19.4 °F 80% 30.30 in 3.0 mi Calm Calm - 0.00 in Snow Light Snow
11:46 PM 23.0 °F - 19.4 °F 86% 30.30 in 2.0 mi Calm Calm - 0.00 in Snow Light Snow
11:53 PM 23.0 °F - 19.0 °F 85% 30.33 in 2.0 mi Calm Calm - 0.00 in Snow Light Snow